Time,TemperatureF,DewpointF,PressureIn,WindDirection,WindDirectionDegrees,WindSpeedMPH,WindSpeedGustMPH,Humidity,HourlyPrecipIn,Conditions,Clouds,dailyrainin,SolarRadiationWatts/m^2,SoftwareType,DateUTC
2013-07-04 00:11:00,77.0,45.0,-100.00,East,79,3.0,6.0,32,0.00,,,-99.99,0.000000,,2013-07-04 06:11:00,
2013-07-04 00:22:00,77.0,47.0,-100.00,East,84,3.0,4.0,34,0.00,,,-99.99,0.000000,,2013-07-04 06:22:00,
2013-07-04 00:33:00,76.0,45.0,-100.00,NE,34,4.0,6.0,34,0.00,,,-99.99,0.000000,,2013-07-04 06:33:00,
2013-07-04 00:43:00,76.0,47.0,-100.00,NE,49,4.0,6.0,36,0.00,,,-99.99,0.000000,,2013-07-04 06:43:00,
2013-07-04 00:52:00,75.0,46.0,-100.00,ENE,63,3.0,4.0,36,0.00,,,-99.99,0.000000,,2013-07-04 06:52:00,
2013-07-04 01:11:00,74.0,48.0,-100.00,SE,125,3.0,5.0,40,0.00,,,-99.99,0.000000,,2013-07-04 07:11:00,
2013-07-04 01:52:00,74.0,49.0,-100.00,SSE,149,3.0,5.0,42,0.00,,,-99.99,0.000000,,2013-07-04 07:52:00,
2013-07-04 02:02:00,76.0,47.0,-100.00,ESE,119,4.0,7.0,36,0.00,,,-99.99,0.000000,,2013-07-04 08:02:00,
2013-07-04 02:42:00,76.0,48.0,-100.00,East,94,2.0,6.0,37,0.00,,,-99.99,0.000000,,2013-07-04 08:42:00,
2013-07-04 02:50:00,75.0,48.0,-100.00,ENE,64,5.0,7.0,38,0.00,,,-99.99,0.000000,,2013-07-04 08:50:00,
2013-07-04 03:11:00,75.0,49.0,-100.00,ENE,73,5.0,7.0,40,0.00,,,-99.99,0.000000,,2013-07-04 09:11:00,
2013-07-04 03:22:00,75.0,48.0,-100.00,ENE,64,5.0,7.0,38,0.00,,,-99.99,0.000000,,2013-07-04 09:22:00,
2013-07-04 03:32:00,75.0,48.0,-100.00,ENE,64,5.0,7.0,38,0.00,,,-99.99,0.000000,,2013-07-04 09:32:00,
2013-07-04 03:42:00,75.0,48.0,-100.00,ENE,64,5.0,7.0,38,0.00,,,-99.99,0.000000,,2013-07-04 09:42:00,
2013-07-04 04:43:00,70.0,59.0,-100.00,East,79,9.0,14.0,68,0.00,,,-99.99,0.000000,,2013-07-04 10:43:00,
2013-07-04 04:53:00,69.0,59.0,-100.00,East,80,10.0,15.0,72,0.00,,,-99.99,0.000000,,2013-07-04 10:53:00,
2013-07-04 05:11:00,68.0,58.0,-100.00,ENE,78,11.0,17.0,70,0.00,,,-99.99,0.000000,,2013-07-04 11:11:00,
2013-07-04 05:22:00,68.0,57.0,-100.00,ENE,75,9.0,16.0,68,0.00,,,-99.99,0.000000,,2013-07-04 11:22:00,
2013-07-04 05:43:00,68.0,57.0,-100.00,ENE,59,11.0,17.0,67,0.00,,,-99.99,0.000000,,2013-07-04 11:43:00,
2013-07-04 05:53:00,68.0,57.0,-100.00,ESE,107,8.0,15.0,68,0.00,,,-99.99,0.000000,,2013-07-04 11:53:00,
2013-07-04 06:11:00,68.0,57.0,-100.00,NE,47,6.0,11.0,66,0.00,,,-99.99,0.000000,,2013-07-04 12:11:00,
2013-07-04 06:22:00,68.0,57.0,-100.00,NE,47,6.0,11.0,66,0.00,,,-99.99,0.000000,,2013-07-04 12:22:00,
2013-07-04 06:33:00,68.0,57.0,-100.00,NE,54,5.0,8.0,68,0.00,,,-99.99,0.000000,,2013-07-04 12:33:00,
2013-07-04 06:52:00,68.0,57.0,-100.00,ESE,117,4.0,7.0,69,0.00,,,-99.99,4.000000,,2013-07-04 12:52:00,
2013-07-04 07:02:00,67.0,58.0,-100.00,South,185,3.0,5.0,71,0.00,,,-99.99,9.000000,,2013-07-04 13:02:00,
2013-07-04 07:11:00,67.0,58.0,-100.00,WSW,252,3.0,6.0,73,0.00,,,-99.99,14.000000,,2013-07-04 13:11:00,
2013-07-04 07:33:00,66.0,58.0,-100.00,SSE,162,2.0,4.0,75,0.00,,,-99.99,51.000000,,2013-07-04 13:33:00,
2013-07-04 07:43:00,67.0,57.0,-100.00,SE,136,2.0,4.0,70,0.00,,,-99.99,85.000000,,2013-07-04 13:43:00,
2013-07-04 07:50:00,68.0,58.0,-100.00,West,281,1.0,2.0,72,0.00,,,-99.99,137.000000,,2013-07-04 13:50:00,
2013-07-04 07:53:00,68.0,57.0,-100.00,SSE,148,1.0,4.0,70,0.00,,,-99.99,113.000000,,2013-07-04 13:53:00,
2013-07-04 08:11:00,68.0,58.0,-100.00,WNW,283,2.0,3.0,72,0.00,,,-99.99,133.000000,,2013-07-04 14:11:00,
2013-07-04 08:22:00,68.0,58.0,-100.00,West,281,1.0,2.0,72,0.00,,,-99.99,137.000000,,2013-07-04 14:22:00,
2013-07-04 08:33:00,68.0,58.0,-100.00,West,281,1.0,2.0,72,0.00,,,-99.99,137.000000,,2013-07-04 14:33:00,
2013-07-04 08:43:00,68.0,58.0,-100.00,West,281,1.0,2.0,72,0.00,,,-99.99,137.000000,,2013-07-04 14:43:00,
2013-07-04 09:52:00,69.0,59.0,-100.00,SSW,199,2.0,5.0,70,0.00,,,-99.99,159.000000,,2013-07-04 15:52:00,
2013-07-04 10:11:00,72.0,61.0,-100.00,SW,215,3.0,6.0,69,0.00,,,-99.99,299.000000,,2013-07-04 16:11:00,
2013-07-04 10:22:00,72.0,61.0,-100.00,SW,215,3.0,6.0,69,0.00,,,-99.99,299.000000,,2013-07-04 16:22:00,
2013-07-04 10:33:00,72.0,60.0,-100.00,WSW,238,2.0,4.0,65,0.00,,,-99.99,216.000000,,2013-07-04 16:33:00,
2013-07-04 11:11:00,75.0,59.0,-100.00,South,176,3.0,5.0,57,0.00,,,-99.99,460.000000,,2013-07-04 17:11:00,
2013-07-04 11:22:00,76.0,60.0,-100.00,East,101,2.0,4.0,57,0.00,,,-99.99,424.000000,,2013-07-04 17:22:00,
2013-07-04 11:43:00,79.0,58.0,-100.00,WSW,241,3.0,5.0,50,0.00,,,-99.99,774.000000,,2013-07-04 17:43:00,
2013-07-04 11:53:00,81.0,58.0,-100.00,ESE,112,3.0,4.0,46,0.00,,,-99.99,852.000000,,2013-07-04 17:53:00,
2013-07-04 12:11:00,83.0,60.0,-100.00,ENE,69,3.0,4.0,46,0.00,,,-99.99,881.000000,,2013-07-04 18:11:00,
2013-07-04 12:22:00,84.0,59.0,-100.00,East,94,2.0,4.0,44,0.00,,,-99.99,873.000000,,2013-07-04 18:22:00,
2013-07-04 12:43:00,84.0,57.0,-100.00,WSW,251,3.0,5.0,39,0.00,,,-99.99,899.000000,,2013-07-04 18:43:00,
2013-07-04 12:50:00,86.0,52.0,-100.00,SSW,197,4.0,7.0,31,0.00,,,-99.99,920.000000,,2013-07-04 18:50:00,
2013-07-04 12:52:00,84.0,57.0,-100.00,WSW,251,3.0,5.0,39,0.00,,,-99.99,899.000000,,2013-07-04 18:52:00,
2013-07-04 13:11:00,86.0,52.0,-100.00,SSW,197,4.0,7.0,31,0.00,,,-99.99,920.000000,,2013-07-04 19:11:00,
2013-07-04 13:22:00,86.0,52.0,-100.00,SSW,197,4.0,7.0,31,0.00,,,-99.99,920.000000,,2013-07-04 19:22:00,
2013-07-04 13:33:00,86.0,52.0,-100.00,SSW,197,4.0,7.0,31,0.00,,,-99.99,920.000000,,2013-07-04 19:33:00,
2013-07-04 13:43:00,86.0,52.0,-100.00,SSW,197,4.0,7.0,31,0.00,,,-99.99,920.000000,,2013-07-04 19:43:00,
2013-07-04 14:42:00,86.0,59.0,-100.00,SE,129,7.0,10.0,40,0.00,,,-99.99,949.000000,,2013-07-04 20:42:00,
2013-07-04 14:53:00,87.0,58.0,-100.00,East,89,6.0,10.0,38,0.00,,,-99.99,932.000000,,2013-07-04 20:53:00,
2013-07-04 15:11:00,87.0,58.0,-100.00,ESE,111,6.0,10.0,38,0.00,,,-99.99,901.000000,,2013-07-04 21:11:00,
2013-07-04 15:22:00,87.0,58.0,-100.00,ESE,103,5.0,8.0,38,0.00,,,-99.99,913.000000,,2013-07-04 21:22:00,
2013-07-04 15:52:00,88.0,56.0,-100.00,SSE,150,5.0,8.0,34,0.00,,,-99.99,784.000000,,2013-07-04 21:52:00,
2013-07-04 16:01:00,86.0,56.0,-100.00,SE,142,5.0,9.0,36,0.00,,,-99.99,165.000000,,2013-07-04 22:01:00,
2013-07-04 16:11:00,85.0,55.0,-100.00,East,90,5.0,7.0,36,0.00,,,-99.99,300.000000,,2013-07-04 22:11:00,
2013-07-04 16:22:00,86.0,59.0,-100.00,SE,128,6.0,8.0,40,0.00,,,-99.99,887.000000,,2013-07-04 22:22:00,
2013-07-04 16:43:00,83.0,54.0,-100.00,ENE,69,5.0,7.0,38,0.00,,,-99.99,212.000000,,2013-07-04 22:43:00,
2013-07-04 16:52:00,82.0,56.0,-100.00,ESE,119,5.0,7.0,40,0.00,,,-99.99,827.000000,,2013-07-04 22:52:00,
2013-07-04 17:11:00,88.0,53.0,-100.00,East,82,5.0,8.0,30,0.00,,,-99.99,745.000000,,2013-07-04 23:11:00,
2013-07-04 17:23:00,88.0,55.0,-100.00,ENE,69,6.0,10.0,33,0.00,,,-99.99,690.000000,,2013-07-04 23:23:00,
2013-07-04 17:33:00,88.0,56.0,-100.00,East,96,6.0,10.0,34,0.00,,,-99.99,641.000000,,2013-07-04 23:33:00,
2013-07-04 17:42:00,87.0,55.0,-100.00,East,97,6.0,9.0,33,0.00,,,-99.99,594.000000,,2013-07-04 23:42:00,
2013-07-04 17:50:00,86.0,54.0,-100.00,East,92,7.0,11.0,34,0.00,,,-99.99,489.000000,,2013-07-04 23:50:00,
2013-07-04 17:52:00,86.0,52.0,-100.00,ESE,105,8.0,13.0,31,0.00,,,-99.99,556.000000,,2013-07-04 23:52:00,
2013-07-04 18:11:00,87.0,55.0,-100.00,SE,146,6.0,11.0,34,0.00,,,-99.99,524.000000,,2013-07-05 00:11:00,
2013-07-04 18:21:00,86.0,54.0,-100.00,East,92,7.0,11.0,34,0.00,,,-99.99,489.000000,,2013-07-05 00:21:00,
2013-07-04 18:32:00,86.0,54.0,-100.00,East,92,7.0,11.0,34,0.00,,,-99.99,489.000000,,2013-07-05 00:32:00,
2013-07-04 18:43:00,86.0,54.0,-100.00,East,92,7.0,11.0,34,0.00,,,-99.99,489.000000,,2013-07-05 00:43:00,
2013-07-04 19:22:00,82.0,53.0,-100.00,ENE,66,6.0,9.0,37,0.00,,,-99.99,75.000000,,2013-07-05 01:22:00,
2013-07-04 19:32:00,81.0,53.0,-100.00,ENE,74,5.0,8.0,38,0.00,,,-99.99,68.000000,,2013-07-05 01:32:00,
2013-07-04 19:42:00,81.0,52.0,-100.00,ENE,61,5.0,8.0,37,0.00,,,-99.99,63.000000,,2013-07-05 01:42:00,
2013-07-04 19:52:00,81.0,50.0,-100.00,ENE,75,5.0,8.0,35,0.00,,,-99.99,62.000000,,2013-07-05 01:52:00,
2013-07-04 20:11:00,80.0,49.0,-100.00,ENE,60,4.0,7.0,34,0.00,,,-99.99,56.000000,,2013-07-05 02:11:00,
2013-07-04 20:21:00,79.0,53.0,-100.00,NE,46,3.0,5.0,40,0.00,,,-99.99,50.000000,,2013-07-05 02:21:00,
2013-07-04 20:42:00,80.0,49.0,-100.00,ENE,67,5.0,7.0,34,0.00,,,-99.99,31.000000,,2013-07-05 02:42:00,
2013-07-04 20:52:00,79.0,49.0,-100.00,ENE,69,4.0,7.0,34,0.00,,,-99.99,17.000000,,2013-07-05 02:52:00,
2013-07-04 21:02:00,79.0,49.0,-100.00,East,81,4.0,6.0,35,0.00,,,-99.99,10.000000,,2013-07-05 03:02:00,
2013-07-04 21:11:00,77.0,48.0,-100.00,ENE,61,4.0,5.0,35,0.00,,,-99.99,6.000000,,2013-07-05 03:11:00,
2013-07-04 21:21:00,77.0,49.0,-100.00,ENE,75,4.0,5.0,37,0.00,,,-99.99,2.000000,,2013-07-05 03:21:00,
2013-07-04 21:32:00,76.0,50.0,-100.00,ENE,75,3.0,6.0,40,0.00,,,-99.99,0.000000,,2013-07-05 03:32:00,
2013-07-04 21:42:00,75.0,51.0,-100.00,East,87,3.0,4.0,43,0.00,,,-99.99,0.000000,,2013-07-05 03:42:00,
2013-07-04 21:51:00,75.0,51.0,-100.00,ENE,63,3.0,4.0,43,0.00,,,-99.99,0.000000,,2013-07-05 03:51:00,
2013-07-04 22:01:00,74.0,51.0,-100.00,East,96,3.0,4.0,44,0.00,,,-99.99,0.000000,,2013-07-05 04:01:00,
2013-07-04 22:11:00,75.0,52.0,-100.00,East,91,3.0,6.0,45,0.00,,,-99.99,0.000000,,2013-07-05 04:11:00,
2013-07-04 22:21:00,75.0,52.0,-100.00,East,80,3.0,5.0,45,0.00,,,-99.99,0.000000,,2013-07-05 04:21:00,
2013-07-04 22:43:00,74.0,51.0,-100.00,East,95,3.0,5.0,45,0.00,,,-99.99,0.000000,,2013-07-05 04:43:00,
2013-07-04 22:50:00,75.0,49.0,-100.00,ESE,112,3.0,6.0,40,0.00,,,-99.99,0.000000,,2013-07-05 04:50:00,
2013-07-04 22:53:00,75.0,51.0,-100.00,East,98,3.0,6.0,43,0.00,,,-99.99,0.000000,,2013-07-05 04:53:00,
2013-07-04 23:12:00,75.0,49.0,-100.00,ESE,112,3.0,6.0,40,0.00,,,-99.99,0.000000,,2013-07-05 05:12:00,
2013-07-04 23:21:00,75.0,49.0,-100.00,ESE,112,3.0,6.0,40,0.00,,,-99.99,0.000000,,2013-07-05 05:21:00,
2013-07-04 23:33:00,75.0,49.0,-100.00,ESE,112,3.0,6.0,40,0.00,,,-99.99,0.000000,,2013-07-05 05:33:00,
2013-07-04 23:43:00,75.0,49.0,-100.00,ESE,112,3.0,6.0,40,0.00,,,-99.99,0.000000,,2013-07-05 05:43:00,